This is the latest recevied weather packets stored in our database for station/object ED1ZAI-13. If no packets are shown the sender has not sent any weather packets the latest 10 day(s).
| Time | Temp. | Humidity | Pressure | Rain* | Wind** | Luminosity | Snow |
|---|---|---|---|---|---|---|---|
| 1777558641 | 18.33° C | 43% | 1015.5 hPa | 0 mm | - | - | - |
| 1777558040 | 18.89° C | 43% | 1015.6 hPa | 0 mm | - | - | - |
| 1777557440 | 17.78° C | 39% | 1015.6 hPa | 0 mm | - | - | - |
| 1777556840 | 18.89° C | 40% | 1015.7 hPa | 0 mm | - | - | - |
| 1777556242 | 19.44° C | 38% | 1015.7 hPa | 0 mm | - | - | - |
| 1777555642 | 18.33° C | 42% | 1015.6 hPa | 0 mm | - | - | - |
| 1777555041 | 18.33° C | 40% | 1015.6 hPa | 0 mm | - | - | - |
| 1777554441 | 17.78° C | 40% | 1015.6 hPa | 0 mm | - | - | - |
| 1777553841 | 17.22° C | 42% | 1015.6 hPa | 0 mm | - | - | - |
| 1777553241 | 17.22° C | 47% | 1015.6 hPa | 0 mm | - | - | - |
| 1777552641 | 17.22° C | 44% | 1015.6 hPa | 0 mm | - | - | - |
| 1777552041 | 18.33° C | 48% | 1015.7 hPa | 0 mm | - | - | - |
| 1777551297 | 17.22° C | 51% | 1015.8 hPa | 0 mm | - | - | - |
| 1777550697 | 16.11° C | 53% | 1015.8 hPa | 0 mm | - | - | - |
| 1777550096 | 15.56° C | 51% | 1015.9 hPa | 0 mm | - | - | - |
| 1777549496 | 15° C | 57% | 1015.9 hPa | 0 mm | - | - | - |
| 1777548898 | 15.56° C | 55% | 1015.8 hPa | 0 mm | - | - | - |
| 1777548298 | 15.56° C | 60% | 1015.8 hPa | 0 mm | - | - | - |
| 1777547698 | 13.89° C | 63% | 1015.9 hPa | 0 mm | - | - | - |
| 1777547097 | 14.44° C | 61% | 1016 hPa | 0 mm | - | - | - |
| 1777546497 | 14.44° C | 60% | 1015.9 hPa | 0 mm | - | - | - |
| 1777545897 | 13.33° C | 63% | 1016 hPa | 0 mm | - | - | - |
| 1777545297 | 13.33° C | 65% | 1015.9 hPa | 0 mm | - | - | - |
| 1777544696 | 13.89° C | 61% | 1015.8 hPa | 0 mm | - | - | - |
| 1777544096 | 14.44° C | 62% | 1015.8 hPa | 0 mm | - | - | - |
* Rain latest hour (hover to see other rain measurements)
** Current wind speed in m/s (hover to see current wind gust speed)